Карточка аэропорта UUYY

Внимание!
Информация на этой странице в стадии наполнения.
Если вы не увидели какой-то информации, или заметили неточность - пожалуйста сообщите нам!
Спасибо!
Команда RU-STAFF
Название аэропортаСыктывкар
Название аэропорта (англ.)Syktyvkar
Превышение339 ft. (103.3 m.)
Координаты61°38.502', 50°50.298'
Высота перехода3000 feet
Эшелон переходаQNH>=1013hPa:FL040; QNH<1013hPa:FL050; QNH<977hPa:FL060
Коды ответчика3130-3134, 5752-5757, 5770-5777, 6701-6717
Зона ОрВДСанкт-Петербург РПИ (ULLL)
Данные METARUUYY 252200Z 35002MPS 310V020 9999 BKN032 11/06 Q1001 R36/61D NOSIG RMK QFE742/0990
Проноз погоды (TAF)UUYY 252000Z 2521/2621 35003G12MPS 9999 BKN017CB TEMPO 2521/2606 6000 -SHRA BKN007 BKN016CB BECMG 2603/2605 34005G14MPS TEMPO 2606/2621 6000 -SHRA FEW007 BKN016CB BECMG 2618/2619 33003G08MPS
NOTAMshow/hide NOTAM
AWOS   TABLE

Информация о ВПП

ВПП Длина ВПП (м.) Покрытие Курс ВПП Частота ILS
192500Асфальтобетон186111.7
012500Асфальтобетон6108.3

Диспетчерские позиции

Позывной Наименование органа УВД Частота
UUYY_TWRСивкар-Старт124.600
UUYY_R_APPСивкар-Круг124.600



Спутниковое изображение